Flag for India Weather past 2 weeks in Kãnpur, Uttar Pradesh, India

Now
82 °F

Passing clouds.


Feels Like: 92 °F
Forecast: 80 / 96 °F
Wind: No wind

Location: Lucknow / Amausi

Current Time: Jul 26, 2014 at 4:59:04 AM

Latest Report: Jul 26, 2014 at 4:00 AM


Visibility: 2 mi

Pressure: 29.59 "Hg

Humidity: 89%

Dew point: 79 °F

Location of KãnpurLocation

Historic Weather in Kãnpur — Graph

°F

Kãnpur temperature yesterday

Maximum temperature yesterday: 91 °F (at 1:30 PM)
Minimum temperature yesterday: 79 °F (at 4:00 AM)
Average temperature yesterday: 86 °F

Past Weeks' High & Low Weather Summary

 TemperatureHumidityPressure
High102 °F (Jul 21, 12:30 PM)100% (Jul 13, 4:30 PM)29.62 "Hg (Jul 13, 4:30 PM)
Low77 °F (Jul 18, 11:30 AM)57% (Jul 11, 2:30 PM)28.29 "Hg (Jul 14, 5:30 PM)
Average86 °F82%29.45 "Hg
* Reported Jul 11 3:00 AM — Jul 26 3:00 AM, Kãnpur, Weather by CustomWeather, © 2014

Note: Actual official high and low records may vary slightly from our data, if they occured in-between our weather recording intervals... More about our weather records

Advertising

Kãnpur weather history for previous 24 hours

 ConditionsComfort  
Time TempWeatherWind HumidityBarometerVisibility
3:00 AM
Jul 26
82 °FHaze.No wind89%29.59 "Hg2 mi
2:00 AM82 °FHaze.No wind89%29.59 "Hg2 mi
1:00 AM84 °FHaze.No wind84%29.59 "Hg2 mi
12:00 AM84 °FHaze.No wind89%29.62 "Hg2 mi
11:00 PM
Jul 25
84 °FHaze.No wind84%29.62 "Hg2 mi
10:00 PM86 °FPassing clouds.No wind79%29.62 "Hg3 mi
9:00 PM86 °FPassing clouds.No wind79%29.59 "Hg3 mi
8:00 PM86 °FPassing clouds.No wind75%29.56 "Hg3 mi
7:00 PM88 °FPartly sunny.No wind66%29.53 "Hg3 mi
6:30 PM88 °FPartly sunny.No wind66%29.53 "Hg3 mi
6:00 PM88 °FPartly sunny.No wind66%29.53 "Hg3 mi
5:30 PM88 °FBroken clouds.No wind70%29.50 "Hg3 mi
5:00 PM91 °FBroken clouds.6 mph63%29.53 "Hg3 mi
4:00 PM91 °FBroken clouds.6 mph63%29.53 "Hg3 mi
3:30 PM91 °FScattered clouds.5 mph63%29.53 "Hg3 mi
3:00 PM91 °FScattered clouds.7 mph63%29.53 "Hg3 mi
2:30 PM90 °FScattered clouds.6 mph67%29.56 "Hg3 mi
2:00 PM91 °FScattered clouds.5 mph67%29.56 "Hg3 mi
1:30 PM91 °FScattered clouds.7 mph67%29.59 "Hg3 mi
1:00 PM90 °FBroken clouds.8 mph71%29.59 "Hg3 mi
12:30 PM90 °FBroken clouds.8 mph71%29.59 "Hg3 mi
12:00 PM90 °FBroken clouds.8 mph71%29.59 "Hg3 mi
11:30 AM88 °FBroken clouds.7 mph75%29.62 "Hg3 mi
11:00 AM88 °FBroken clouds.7 mph70%29.59 "Hg3 mi
10:30 AM88 °FBroken clouds.5 mph70%29.62 "Hg3 mi
10:00 AM88 °FBroken clouds.6 mph70%29.62 "Hg3 mi
9:30 AM86 °FBroken clouds.3 mph75%29.62 "Hg3 mi
9:00 AM84 °FBroken clouds.2 mph79%29.62 "Hg3 mi
8:30 AM82 °FBroken clouds.2 mph79%29.62 "Hg2 mi
8:00 AM81 °FBroken clouds.3 mph84%29.59 "Hg2 mi
7:30 AM81 °FBroken clouds.3 mph89%29.59 "Hg2 mi
7:00 AM81 °FBroken clouds.No wind89%29.59 "Hg2 mi
6:30 AM79 °FBroken clouds.No wind89%29.59 "Hg2 mi
6:00 AM79 °FBroken clouds.No wind89%29.56 "Hg2 mi
5:30 AM79 °FPartly cloudy.No wind89%29.56 "Hg2 mi
5:00 AM79 °FPartly cloudy.No wind94%29.56 "Hg2 mi
4:00 AM79 °FPartly cloudy.2 mph94%29.56 "Hg2 mi
Weather by CustomWeather, © 2014

See weather overviewHow to use our weather pages